| time (UTC) | temp C | wind direction | speed KPH | gust KPH | rain 1hr cm | rain 24hr cm | rain mn cm | humidity % | barometer mb |
| 20260506134600 | 5 | 0 | 1.6 | 4.8 | 0.00 | 0.00 | 0.00 | 61 | 1009.3 |
| 20260506133100 | 5 | 101 | 1.6 | 9.7 | 0.00 | 0.00 | 0.00 | 58 | 1009.1 |
| 20260506131608 | 5 | 70 | 0.0 | 9.7 | 0.00 | 0.00 | 0.00 | 58 | 1009.2 |
| 20260506130109 | 5 | 0 | 1.6 | 16.1 | 0.00 | 0.00 | 0.00 | 59 | 1009.0 |
| 20260506124555 | 4 | 44 | 1.6 | 4.8 | 0.00 | 0.00 | 0.00 | 65 | 1009.1 |
| 20260506123107 | 4 | 309 | 0.0 | 4.8 | 0.00 | 0.00 | 0.00 | 74 | 1009.1 |
| 20260506121608 | 5 | 25 | 1.6 | 8.0 | 0.00 | 0.00 | 0.00 | 73 | 1008.9 |
| 20260506120059 | 5 | 51 | 1.6 | 6.4 | 0.00 | 0.00 | 0.00 | 71 | 1008.5 |
| 20260506114559 | 5 | 344 | 0.0 | 6.4 | 0.00 | 0.00 | 0.00 | 72 | 1008.3 |
| 20260506113056 | 4 | 65 | 0.0 | 4.8 | 0.00 | 0.00 | 0.00 | 76 | 1007.9 |
| 20260506111552 | 4 | 0 | 0.0 | 3.2 | 0.00 | 0.00 | 0.00 | 77 | 1007.5 |
| 20260506104557 | 4 | 0 | 0.0 | 3.2 | 0.00 | 0.00 | 0.00 | 77 | 1006.9 |
| 20260506103056 | 4 | 0 | 0.0 | 6.4 | 0.00 | 0.00 | 0.00 | 77 | 1006.7 |
| 20260506101608 | 4 | 352 | 0.0 | 3.2 | 0.00 | 0.00 | 0.00 | 78 | 1006.6 |
| 20260506100050 | 5 | 0 | 0.0 | 4.8 | 0.00 | 0.00 | 0.00 | 77 | 1006.6 |
| 20260506094559 | 5 | 0 | 0.0 | 4.8 | 0.00 | 0.00 | 0.00 | 75 | 1006.7 |
| 20260506093058 | 5 | 304 | 1.6 | 6.4 | 0.00 | 0.00 | 0.00 | 73 | 1006.6 |
| 20260506091556 | 6 | 37 | 0.0 | 6.4 | 0.00 | 0.00 | 0.00 | 73 | 1006.8 |
| 20260506084616 | 6 | 62 | 0.0 | 1.6 | 0.00 | 0.00 | 0.00 | 71 | 1007.1 |
| 20260506083055 | 6 | 0 | 0.0 | 1.6 | 0.00 | 0.00 | 0.00 | 74 | 1006.8 |
| 20260506081611 | 6 | 0 | 0.0 | 3.2 | 0.00 | 0.00 | 0.00 | 75 | 1007.1 |
| 20260506073050 | 6 | 0 | 0.0 | 1.6 | 0.00 | 0.00 | 0.00 | 75 | 1006.7 |
| 20260506071556 | 6 | 0 | 0.0 | 1.6 | 0.00 | 0.00 | 0.00 | 76 | 1006.6 |
| 20260506061552 | 6 | 0 | 0.0 | 1.6 | 0.00 | 0.00 | 0.00 | 76 | 1006.5 |
| 20260506050113 | 6 | 0 | 0.0 | 0.0 | 0.00 | 0.03 | 0.00 | 75 | 1007.2 |
| 20260506044554 | 6 | 0 | 0.0 | 1.6 | 0.00 | 0.03 | 0.00 | 76 | 1007.2 |
| 20260506043054 | 6 | 0 | 0.0 | 1.6 | 0.00 | 0.03 | 0.00 | 76 | 1007.0 |
| 20260506041601 | 6 | 0 | 0.0 | 0.0 | 0.00 | 0.03 | 0.00 | 76 | 1007.1 |
| 20260506040057 | 6 | 0 | 0.0 | 1.6 | 0.00 | 0.03 | 0.00 | 75 | 1007.1 |
| 20260506034556 | 6 | 0 | 0.0 | 0.0 | 0.00 | 0.03 | 0.03 | 75 | 1007.1 |
| 20260506033053 | 6 | 0 | 0.0 | 0.0 | 0.00 | 0.03 | 0.03 | 74 | 1007.1 |
| 20260506031552 | 6 | 0 | 0.0 | 3.2 | 0.00 | 0.03 | 0.03 | 74 | 1007.1 |
| 20260506030051 | 6 | 0 | 0.0 | 1.6 | 0.00 | 0.03 | 0.03 | 74 | 1006.9 |
| 20260506024606 | 6 | 0 | 0.0 | 1.6 | 0.00 | 0.03 | 0.03 | 73 | 1006.9 |
| 20260506023107 | 6 | 0 | 0.0 | 3.2 | 0.00 | 0.03 | 0.03 | 72 | 1006.9 |
| 20260506021552 | 7 | 0 | 0.0 | 1.6 | 0.00 | 0.03 | 0.03 | 72 | 1007.0 |
| 20260506020056 | 7 | 0 | 0.0 | 0.0 | 0.00 | 0.03 | 0.03 | 72 | 1007.1 |
| 20260506014552 | 7 | 0 | 0.0 | 1.6 | 0.00 | 0.03 | 0.03 | 70 | 1007.0 |
| 20260506013059 | 7 | 0 | 0.0 | 0.0 | 0.00 | 0.03 | 0.03 | 69 | 1006.9 |
| 20260506011604 | 7 | 0 | 0.0 | 0.0 | 0.00 | 0.03 | 0.03 | 69 | 1006.6 |
| 20260506010055 | 7 | 0 | 0.0 | 1.6 | 0.00 | 0.03 | 0.03 | 67 | 1006.5 |
| 20260506004600 | 8 | 0 | 0.0 | 3.2 | 0.00 | 0.03 | 0.03 | 66 | 1006.3 |
| 20260506003053 | 8 | 0 | 0.0 | 1.6 | 0.00 | 0.03 | 0.03 | 65 | 1006.3 |
| 20260506001558 | 8 | 0 | 0.0 | 1.6 | 0.00 | 0.03 | 0.03 | 62 | 1006.2 |
| 20260506000105 | 9 | 0 | 0.0 | 3.2 | 0.00 | 0.03 | 0.03 | 61 | 1006.0 |
| 20260505234558 | 10 | 0 | 0.0 | 4.8 | 0.00 | 0.03 | 0.03 | 60 | 1005.9 |
| 20260505233056 | 10 | 0 | 0.0 | 1.6 | 0.00 | 0.03 | 0.03 | 57 | 1005.9 |
| 20260505231554 | 10 | 0 | 0.0 | 1.6 | 0.00 | 0.03 | 0.03 | 56 | 1005.9 |
| 20260505230119 | 11 | 136 | 0.0 | 3.2 | 0.00 | 0.03 | 0.03 | 55 | 1005.9 |
| 20260505224552 | 11 | 99 | 1.6 | 3.2 | 0.00 | 0.03 | 0.03 | 55 | 1006.0 |
| 20260505223058 | 11 | 146 | 1.6 | 4.8 | 0.00 | 0.03 | 0.03 | 54 | 1006.0 |
| 20260505221559 | 11 | 131 | 1.6 | 4.8 | 0.00 | 0.03 | 0.03 | 54 | 1006.1 |
| 20260505214559 | 11 | 0 | 0.0 | 6.4 | 0.00 | 0.03 | 0.03 | 55 | 1005.8 |
| 20260505213052 | 12 | 256 | 1.6 | 9.7 | 0.00 | 0.03 | 0.03 | 51 | 1006.0 |
| 20260505211605 | 12 | 155 | 1.6 | 6.4 | 0.00 | 0.03 | 0.03 | 53 | 1006.0 |
| 20260505210106 | 11 | 115 | 1.6 | 6.4 | 0.00 | 0.03 | 0.03 | 54 | 1005.9 |
| 20260505204603 | 11 | 253 | 0.0 | 8.0 | 0.00 | 0.03 | 0.03 | 54 | 1005.8 |
| 20260505203102 | 11 | 300 | 0.0 | 6.4 | 0.00 | 0.03 | 0.03 | 52 | 1005.8 |
| 20260505201555 | 11 | 135 | 1.6 | 4.8 | 0.00 | 0.03 | 0.03 | 50 | 1005.8 |
| 20260505200107 | 11 | 264 | 3.2 | 9.7 | 0.00 | 0.03 | 0.03 | 50 | 1006.1 |
| 20260505194551 | 11 | 266 | 1.6 | 14.5 | 0.00 | 0.03 | 0.03 | 52 | 1005.6 |
| 20260505193102 | 10 | 304 | 1.6 | 8.0 | 0.00 | 0.03 | 0.03 | 53 | 1005.7 |
| 20260505191607 | 10 | 294 | 3.2 | 8.0 | 0.00 | 0.03 | 0.03 | 51 | 1005.7 |
| 20260505190054 | 10 | 309 | 1.6 | 8.0 | 0.00 | 0.03 | 0.03 | 53 | 1005.8 |
| 20260505184557 | 9 | 310 | 3.2 | 9.7 | 0.00 | 0.03 | 0.03 | 53 | 1005.7 |
| 20260505183053 | 9 | 281 | 3.2 | 9.7 | 0.00 | 0.03 | 0.03 | 52 | 1005.6 |
| 20260505181559 | 9 | 293 | 1.6 | 9.7 | 0.00 | 0.03 | 0.03 | 56 | 1005.6 |
| 20260505180058 | 9 | 313 | 4.8 | 11.3 | 0.00 | 0.03 | 0.03 | 51 | 1005.4 |
| 20260505174551 | 9 | 292 | 3.2 | 8.0 | 0.00 | 0.03 | 0.03 | 62 | 1005.1 |
| 20260505173055 | 9 | 321 | 0.0 | 8.0 | 0.00 | 0.03 | 0.03 | 62 | 1005.0 |
| 20260505171556 | 8 | 0 | 1.6 | 8.0 | 0.00 | 0.03 | 0.03 | 63 | 1005.2 |
| 20260505170055 | 9 | 0 | 0.0 | 8.0 | 0.00 | 0.03 | 0.03 | 64 | 1004.9 |
| 20260505164554 | 8 | 346 | 3.2 | 11.3 | 0.00 | 0.03 | 0.03 | 61 | 1005.0 |
| 20260505163054 | 9 | 293 | 1.6 | 6.4 | 0.00 | 0.03 | 0.03 | 59 | 1004.9 |
| 20260505161551 | 9 | 297 | 0.0 | 6.4 | 0.00 | 0.03 | 0.03 | 59 | 1004.9 |
| 20260505153052 | 9 | 303 | 1.6 | 8.0 | 0.00 | 0.03 | 0.03 | 56 | 1004.6 |
| 20260505151556 | 10 | 311 | 1.6 | 8.0 | 0.00 | 0.03 | 0.03 | 59 | 1004.6 |
| 20260505150106 | 10 | 13 | 1.6 | 8.0 | 0.00 | 0.03 | 0.03 | 60 | 1004.1 |